When you browse on this site, cookies collect data to enhance your experience and personalize the content and advertising you see.
Visit our Privacy Policy to learn more. By continuing to use the site, you agree to this use of cookies and data.
EN

Hourly Weather Abernethy

Today, 14 July, Tuesday

Time Temperature Precipitation Wind Pressure Humidity
00:00 +9°C° 0 mm 3 mps 747 mmHg 91%
01:00 +8°C° 0 mm 3 mps 747 mmHg 92%
02:00 +8°C° 0 mm 3 mps 747 mmHg 93%
03:00 +8°C° 0 mm 3 mps 747 mmHg 94%
04:00 +9°C° 0 mm 3 mps 747 mmHg 91%
05:00 +10°C° 0 mm 3 mps 746 mmHg 89%
06:00 +11°C° 0 mm 3 mps 746 mmHg 86%
07:00 +12°C° 0 mm 3 mps 746 mmHg 80%
08:00 +14°C° 0 mm 4 mps 747 mmHg 74%
09:00 +15°C° 0 mm 4 mps 747 mmHg 69%
10:00 +17°C° 0.1 mm 4 mps 747 mmHg 68%
11:00 +17°C° 0.1 mm 4 mps 746 mmHg 67%
12:00 +18°C° 0.1 mm 4 mps 746 mmHg 66%
13:00 +18°C° 0.2 mm 4 mps 746 mmHg 66%
14:00 +18°C° 0.2 mm 4 mps 746 mmHg 66%
15:00 +18°C° 0.2 mm 4 mps 746 mmHg 67%
16:00 +18°C° 0.1 mm 4 mps 746 mmHg 69%
17:00 +17°C° 0.1 mm 4 mps 746 mmHg 71%
18:00 +17°C° 0.1 mm 3 mps 746 mmHg 73%
19:00 +16°C° 0.1 mm 3 mps 746 mmHg 78%
20:00 +14°C° 0.1 mm 2 mps 746 mmHg 84%
21:00 +12°C° 0.1 mm 2 mps 746 mmHg 90%
22:00 +12°C° 0 mm 2 mps 746 mmHg 90%
23:00 +12°C° 0 mm 1 mps 746 mmHg 90%

Tomorrow, 15 July, Wednesday

Time Temperature Precipitation Wind Pressure Humidity
00:00 +12°C° 0 mm 1 mps 746 mmHg 91%
01:00 +12°C° 0 mm 1 mps 745 mmHg 91%
02:00 +12°C° 0 mm 1 mps 745 mmHg 92%
03:00 +12°C° 0 mm 1 mps 745 mmHg 92%
04:00 +12°C° 0.1 mm 1 mps 745 mmHg 93%
05:00 +12°C° 0.1 mm 1 mps 745 mmHg 94%
06:00 +12°C° 0.1 mm 1 mps 745 mmHg 95%
07:00 +12°C° 0.1 mm 2 mps 745 mmHg 95%
08:00 +13°C° 0.1 mm 2 mps 745 mmHg 95%
09:00 +13°C° 0.1 mm 2 mps 745 mmHg 94%
10:00 +13°C° 0 mm 2 mps 745 mmHg 93%
11:00 +14°C° 0 mm 2 mps 745 mmHg 92%
12:00 +15°C° 0 mm 2 mps 745 mmHg 91%
13:00 +14°C° 0 mm 3 mps 745 mmHg 90%
14:00 +16°C° 0 mm 3 mps 745 mmHg 88%
15:00 +16°C° 0 mm 3 mps 745 mmHg 87%
16:00 +16°C° 0 mm 3 mps 745 mmHg 86%
17:00 +17°C° 0 mm 3 mps 745 mmHg 84%
18:00 +17°C° 0 mm 3 mps 745 mmHg 83%
19:00 +16°C° 0 mm 3 mps 746 mmHg 86%
20:00 +14°C° 0 mm 3 mps 746 mmHg 88%
21:00 +14°C° 0 mm 3 mps 747 mmHg 90%
22:00 +13°C° 0 mm 3 mps 747 mmHg 91%
23:00 +13°C° 0 mm 3 mps 747 mmHg 91%

Day after tomorrow, 16 July, Thursday

Time Temperature Precipitation Wind Pressure Humidity
00:00 +13°C° 0 mm 3 mps 747 mmHg 91%
01:00 +12°C° 0 mm 3 mps 747 mmHg 93%
02:00 +12°C° 0 mm 3 mps 747 mmHg 94%
03:00 +11°C° 0 mm 3 mps 747 mmHg 95%
04:00 +12°C° 0 mm 3 mps 747 mmHg 94%
05:00 +12°C° 0 mm 3 mps 747 mmHg 93%
06:00 +13°C° 0 mm 3 mps 748 mmHg 91%
07:00 +14°C° 0 mm 3 mps 748 mmHg 86%
08:00 +17°C° 0 mm 3 mps 748 mmHg 81%
09:00 +18°C° 0 mm 3 mps 748 mmHg 76%
10:00 +19°C° 0 mm 4 mps 748 mmHg 77%
11:00 +19°C° 0 mm 4 mps 748 mmHg 77%
12:00 +20°C° 0 mm 5 mps 748 mmHg 77%
13:00 +19°C° 0 mm 5 mps 748 mmHg 80%
14:00 +17°C° 0 mm 5 mps 748 mmHg 84%
15:00 +16°C° 0 mm 5 mps 748 mmHg 87%
16:00 +17°C° 0 mm 5 mps 748 mmHg 85%
17:00 +17°C° 0 mm 5 mps 748 mmHg 83%
18:00 +19°C° 0 mm 5 mps 748 mmHg 81%
19:00 +16°C° 0 mm 5 mps 748 mmHg 84%
20:00 +15°C° 0 mm 4 mps 748 mmHg 88%
21:00 +14°C° 0 mm 3 mps 748 mmHg 92%
22:00 +14°C° 0 mm 3 mps 748 mmHg 92%
23:00 +14°C° 0 mm 3 mps 748 mmHg 93%

17 July, Friday

Time Temperature Precipitation Wind Pressure Humidity
00:00 +13°C° 0 mm 3 mps 747 mmHg 93%
01:00 +13°C° 0 mm 3 mps 747 mmHg 93%
02:00 +13°C° 0 mm 3 mps 747 mmHg 93%
03:00 +13°C° 0 mm 3 mps 746 mmHg 93%
04:00 +13°C° 0 mm 4 mps 746 mmHg 92%
05:00 +14°C° 0 mm 4 mps 746 mmHg 92%
06:00 +14°C° 0 mm 4 mps 746 mmHg 91%
07:00 +14°C° 0 mm 4 mps 746 mmHg 90%
08:00 +15°C° 0 mm 4 mps 746 mmHg 89%
09:00 +15°C° 0 mm 5 mps 746 mmHg 88%
10:00 +15°C° 0 mm 5 mps 746 mmHg 87%
11:00 +15°C° 0 mm 5 mps 746 mmHg 86%
12:00 +15°C° 0 mm 5 mps 746 mmHg 85%
13:00 +16°C° 0 mm 5 mps 746 mmHg 85%
14:00 +17°C° 0 mm 4 mps 746 mmHg 84%
15:00 +17°C° 0 mm 4 mps 746 mmHg 84%
16:00 +17°C° 0.1 mm 4 mps 745 mmHg 84%
17:00 +17°C° 0.1 mm 4 mps 745 mmHg 84%
18:00 +18°C° 0.1 mm 3 mps 745 mmHg 84%
19:00 +17°C° 0.9 mm 3 mps 745 mmHg 88%
20:00 +16°C° 0.9 mm 3 mps 745 mmHg 92%
21:00 +15°C° 0.9 mm 2 mps 745 mmHg 96%
22:00 +15°C° 0.2 mm 2 mps 745 mmHg 96%
23:00 +14°C° 0.2 mm 3 mps 745 mmHg 95%

18 July, Saturday

Time Temperature Precipitation Wind Pressure Humidity
00:00 +13°C° 0.2 mm 3 mps 744 mmHg 95%
01:00 +12°C° 0 mm 3 mps 744 mmHg 94%
02:00 +10°C° 0 mm 3 mps 744 mmHg 93%
03:00 +9°C° 0 mm 3 mps 744 mmHg 93%
04:00 +9°C° 0 mm 3 mps 744 mmHg 91%
05:00 +9°C° 0 mm 3 mps 744 mmHg 90%
06:00 +9°C° 0 mm 3 mps 745 mmHg 88%
07:00 +10°C° 0 mm 4 mps 745 mmHg 84%
08:00 +11°C° 0 mm 4 mps 745 mmHg 80%
09:00 +13°C° 0 mm 5 mps 745 mmHg 77%
10:00 +14°C° 0.1 mm 5 mps 745 mmHg 74%
11:00 +14°C° 0.1 mm 6 mps 745 mmHg 71%
12:00 +15°C° 0.1 mm 6 mps 745 mmHg 68%
13:00 +15°C° 0.1 mm 6 mps 745 mmHg 66%
14:00 +15°C° 0.1 mm 6 mps 745 mmHg 64%
15:00 +16°C° 0.1 mm 6 mps 745 mmHg 62%
16:00 +15°C° 0 mm 6 mps 746 mmHg 63%
17:00 +15°C° 0 mm 5 mps 746 mmHg 65%
18:00 +14°C° 0 mm 5 mps 746 mmHg 66%
19:00 +13°C° 0 mm 4 mps 746 mmHg 71%
20:00 +11°C° 0 mm 4 mps 746 mmHg 77%
21:00 +9°C° 0 mm 3 mps 747 mmHg 82%
22:00 +9°C° 0 mm 3 mps 747 mmHg 85%
23:00 +8°C° 0 mm 3 mps 747 mmHg 88%

19 July, Sunday

Time Temperature Precipitation Wind Pressure Humidity
00:00 +7°C° 0 mm 3 mps 747 mmHg 91%
01:00 +7°C° 0 mm 2 mps 747 mmHg 92%
02:00 +7°C° 0 mm 2 mps 747 mmHg 92%
03:00 +6°C° 0 mm 2 mps 747 mmHg 93%
04:00 +7°C° 0 mm 3 mps 747 mmHg 91%
05:00 +8°C° 0 mm 3 mps 747 mmHg 89%
06:00 +9°C° 0 mm 3 mps 747 mmHg 87%
07:00 +10°C° 0 mm 4 mps 748 mmHg 81%
08:00 +12°C° 0 mm 4 mps 748 mmHg 75%
09:00 +13°C° 0 mm 4 mps 748 mmHg 69%
10:00 +14°C° 0.1 mm 4 mps 748 mmHg 66%
11:00 +15°C° 0.1 mm 4 mps 748 mmHg 64%
12:00 +17°C° 0.1 mm 4 mps 748 mmHg 61%
13:00 +16°C° 0.1 mm 5 mps 748 mmHg 61%
14:00 +16°C° 0.1 mm 5 mps 748 mmHg 62%
15:00 +16°C° 0.1 mm 5 mps 748 mmHg 62%
16:00 +16°C° 0.1 mm 5 mps 748 mmHg 65%
17:00 +15°C° 0.1 mm 4 mps 749 mmHg 68%
18:00 +15°C° 0.1 mm 4 mps 749 mmHg 71%
19:00 +13°C° 0 mm 4 mps 749 mmHg 76%
20:00 +12°C° 0 mm 3 mps 749 mmHg 80%
21:00 +10°C° 0 mm 3 mps 750 mmHg 85%
22:00 +9°C° 0 mm 3 mps 750 mmHg 87%
23:00 +9°C° 0 mm 3 mps 750 mmHg 89%
Show more